Year,Month,Day,Hour,Minute,Value (Times are PST for temperature in C)
2006,06,28,00,00,10.90
2006,06,28,00,01,10.90
2006,06,28,00,02,10.80
2006,06,28,00,03,10.80
2006,06,28,00,04,10.80
2006,06,28,00,05,10.80
2006,06,28,00,06,10.80
2006,06,28,00,07,10.80
2006,06,28,00,08,10.70
2006,06,28,00,09,10.70
2006,06,28,00,10,10.70
2006,06,28,00,11,10.70
2006,06,28,00,12,10.70
2006,06,28,00,13,10.70
2006,06,28,00,14,10.70
2006,06,28,00,15,10.70
2006,06,28,00,16,10.70
2006,06,28,00,17,10.70
2006,06,28,00,18,10.70
2006,06,28,00,19,10.70
2006,06,28,00,20,10.70
2006,06,28,00,21,10.70
2006,06,28,00,22,10.70
2006,06,28,00,23,10.70
2006,06,28,00,24,10.70
2006,06,28,00,25,10.70
2006,06,28,00,26,10.70
2006,06,28,00,27,10.70
2006,06,28,00,28,10.70
2006,06,28,00,29,10.60
2006,06,28,00,30,10.60
2006,06,28,00,31,10.60
2006,06,28,00,32,10.60
2006,06,28,00,33,10.60
2006,06,28,00,34,10.60
2006,06,28,00,35,10.60
2006,06,28,00,36,10.60
2006,06,28,00,37,10.60
2006,06,28,00,38,10.60
2006,06,28,00,39,10.60
2006,06,28,00,40,10.60
2006,06,28,00,41,10.60
2006,06,28,00,42,10.60
2006,06,28,00,43,10.60
2006,06,28,00,44,10.60
2006,06,28,00,45,10.60
2006,06,28,00,46,10.60
2006,06,28,00,47,10.60
2006,06,28,00,48,10.60
2006,06,28,00,49,10.60
2006,06,28,00,50,10.60
2006,06,28,00,51,10.60
2006,06,28,00,52,10.60
2006,06,28,00,53,10.60
2006,06,28,00,54,10.60
2006,06,28,00,55,10.60
2006,06,28,00,56,10.60
2006,06,28,00,57,10.60
2006,06,28,00,58,10.60
2006,06,28,00,59,10.60
2006,06,28,01,00,10.50
2006,06,28,01,01,10.50
2006,06,28,01,02,10.60
2006,06,28,01,03,10.60
2006,06,28,01,04,10.50
2006,06,28,01,05,10.40
2006,06,28,01,06,10.40
2006,06,28,01,07,10.40
2006,06,28,01,08,10.40
2006,06,28,01,09,10.40
2006,06,28,01,10,10.40
2006,06,28,01,11,10.40
2006,06,28,01,12,10.40
2006,06,28,01,13,10.40
2006,06,28,01,14,10.40
2006,06,28,01,15,10.40
2006,06,28,01,16,10.40
2006,06,28,01,17,10.40
2006,06,28,01,18,10.40
2006,06,28,01,19,10.40
2006,06,28,01,20,10.40
2006,06,28,01,21,10.40
2006,06,28,01,22,10.40
2006,06,28,01,23,10.40
2006,06,28,01,24,10.40
2006,06,28,01,25,10.40
2006,06,28,01,26,10.40
2006,06,28,01,27,10.40
2006,06,28,01,28,10.40
2006,06,28,01,29,10.40
2006,06,28,01,30,10.40
2006,06,28,01,31,10.40
2006,06,28,01,32,10.40
2006,06,28,01,33,10.40
2006,06,28,01,34,10.40
2006,06,28,01,35,10.40
2006,06,28,01,36,10.40
2006,06,28,01,37,10.30
2006,06,28,01,38,10.30
2006,06,28,01,39,10.30
2006,06,28,01,40,10.30
2006,06,28,01,41,10.30
2006,06,28,01,42,10.30
2006,06,28,01,43,10.30
2006,06,28,01,44,10.20
2006,06,28,01,45,10.20
2006,06,28,01,46,10.20
2006,06,28,01,47,10.20
2006,06,28,01,48,10.20
2006,06,28,01,49,10.20
2006,06,28,01,50,10.20
2006,06,28,01,51,10.20
2006,06,28,01,52,10.20
2006,06,28,01,53,10.20
2006,06,28,01,54,10.10
2006,06,28,01,55,10.10
2006,06,28,01,56,10.10
2006,06,28,01,57,10.10
2006,06,28,01,58,10.10
2006,06,28,01,59,10.10
2006,06,28,02,00,10.10
2006,06,28,02,01,10.10
2006,06,28,02,02,10.10
2006,06,28,02,03,10.10
2006,06,28,02,04,10.10
2006,06,28,02,05,10.10
2006,06,28,02,06,10.10
2006,06,28,02,07,10.10
2006,06,28,02,08,10.10
2006,06,28,02,09,10.10
2006,06,28,02,10,10.10
2006,06,28,02,11,10.10
2006,06,28,02,12,10.10
2006,06,28,02,13,10.10
2006,06,28,02,14,10.10
2006,06,28,02,15,10.10
2006,06,28,02,16,10.10
2006,06,28,02,17,10.10
2006,06,28,02,18,10.10
2006,06,28,02,19,10.10
2006,06,28,02,20,10.10
2006,06,28,02,21,10.10
2006,06,28,02,22,10.10
2006,06,28,02,23,10.10
2006,06,28,02,24,10.10
2006,06,28,02,25,10.10
2006,06,28,02,26,10.10
2006,06,28,02,27,10.10
2006,06,28,02,28,10.10
2006,06,28,02,29,10.10
2006,06,28,02,30,10.10
2006,06,28,02,31,10.10
2006,06,28,02,32,10.10
2006,06,28,02,33,10.10
2006,06,28,02,34,10.00
2006,06,28,02,35,9.90
2006,06,28,02,36,9.90
2006,06,28,02,37,9.90
2006,06,28,02,38,9.90
2006,06,28,02,39,9.90
2006,06,28,02,40,9.90
2006,06,28,02,41,9.80
2006,06,28,02,42,9.80
2006,06,28,02,43,9.80
2006,06,28,02,44,9.80
2006,06,28,02,45,9.80
2006,06,28,02,46,9.70
2006,06,28,02,47,9.70
2006,06,28,02,48,9.70
2006,06,28,02,49,9.70
2006,06,28,02,50,9.70
2006,06,28,02,51,9.70
2006,06,28,02,52,9.70
2006,06,28,02,53,9.70
2006,06,28,02,54,9.70
2006,06,28,02,55,9.60
2006,06,28,02,56,9.60
2006,06,28,02,57,9.60
2006,06,28,02,58,9.50
2006,06,28,02,59,9.50
2006,06,28,03,00,9.50
2006,06,28,03,01,9.50
2006,06,28,03,02,9.40
2006,06,28,03,03,9.40
2006,06,28,03,04,9.40
2006,06,28,03,05,9.40
2006,06,28,03,06,9.40
2006,06,28,03,07,9.30
2006,06,28,03,08,9.30
2006,06,28,03,09,9.30
2006,06,28,03,10,9.30
2006,06,28,03,11,9.30
2006,06,28,03,12,9.30
2006,06,28,03,13,9.30
2006,06,28,03,14,9.30
2006,06,28,03,15,9.30
2006,06,28,03,16,9.30
2006,06,28,03,17,9.20
2006,06,28,03,18,9.20
2006,06,28,03,19,9.20
2006,06,28,03,20,9.20
2006,06,28,03,21,9.10
2006,06,28,03,22,9.10
2006,06,28,03,23,9.00
2006,06,28,03,24,9.00
2006,06,28,03,25,9.00
2006,06,28,03,26,9.00
2006,06,28,03,27,9.00
2006,06,28,03,28,9.00
2006,06,28,03,29,9.10
2006,06,28,03,30,9.10
2006,06,28,03,31,9.10
2006,06,28,03,32,9.10
2006,06,28,03,33,9.10
2006,06,28,03,34,9.10
2006,06,28,03,35,9.10
2006,06,28,03,36,9.00
2006,06,28,03,37,9.00
2006,06,28,03,38,9.00
2006,06,28,03,39,8.90
2006,06,28,03,40,8.80
2006,06,28,03,41,8.80
2006,06,28,03,42,8.70
2006,06,28,03,43,8.70
2006,06,28,03,44,8.70
2006,06,28,03,45,8.70
2006,06,28,03,46,8.60
2006,06,28,03,47,8.60
2006,06,28,03,48,8.60
2006,06,28,03,49,8.60
2006,06,28,03,50,8.60
2006,06,28,03,51,8.60
2006,06,28,03,52,8.60
2006,06,28,03,53,8.70
2006,06,28,03,54,8.70
2006,06,28,03,55,8.80
2006,06,28,03,56,8.80
2006,06,28,03,57,8.90
2006,06,28,03,58,8.90
2006,06,28,03,59,9.00
2006,06,28,04,00,9.00
2006,06,28,04,01,9.10
2006,06,28,04,02,9.10
2006,06,28,04,03,9.20
2006,06,28,04,04,9.10
2006,06,28,04,05,9.00
2006,06,28,04,06,8.90
2006,06,28,04,07,8.90
2006,06,28,04,08,8.80
2006,06,28,04,09,8.70
2006,06,28,04,10,8.60
2006,06,28,04,11,8.50
2006,06,28,04,12,8.50
2006,06,28,04,13,8.40
2006,06,28,04,14,8.40
2006,06,28,04,15,8.30
2006,06,28,04,16,8.30
2006,06,28,04,17,8.20
2006,06,28,04,18,8.20
2006,06,28,04,19,8.20
2006,06,28,04,20,8.20
2006,06,28,04,21,8.20
2006,06,28,04,22,8.20
2006,06,28,04,23,8.20
2006,06,28,04,24,8.10
2006,06,28,04,25,8.10
2006,06,28,04,26,8.10
2006,06,28,04,27,8.10
2006,06,28,04,28,8.00
2006,06,28,04,29,8.00
2006,06,28,04,30,8.00
2006,06,28,04,31,8.00
2006,06,28,04,32,8.00
2006,06,28,04,33,8.00
2006,06,28,04,34,8.00
2006,06,28,04,35,8.10
2006,06,28,04,36,8.10
2006,06,28,04,37,8.10
2006,06,28,04,38,8.20
2006,06,28,04,39,8.20
2006,06,28,04,40,8.20
2006,06,28,04,41,8.20
2006,06,28,04,42,8.20
2006,06,28,04,43,8.20
2006,06,28,04,44,8.10
2006,06,28,04,45,8.10
2006,06,28,04,46,8.00
2006,06,28,04,47,8.00
2006,06,28,04,48,7.90
2006,06,28,04,49,7.90
2006,06,28,04,50,7.80
2006,06,28,04,51,7.80
2006,06,28,04,52,7.80
2006,06,28,04,53,7.80
2006,06,28,04,54,7.80
2006,06,28,04,55,7.70
2006,06,28,04,56,7.70
2006,06,28,04,57,7.70
2006,06,28,04,58,7.70
2006,06,28,04,59,7.70
2006,06,28,05,00,7.60
2006,06,28,05,01,7.60
2006,06,28,05,02,7.60
2006,06,28,05,03,7.50
2006,06,28,05,04,7.50
2006,06,28,05,05,7.40
2006,06,28,05,06,7.40
2006,06,28,05,07,7.30
2006,06,28,05,08,7.30
2006,06,28,05,09,7.30
2006,06,28,05,10,7.20
2006,06,28,05,11,7.20
2006,06,28,05,12,7.20
2006,06,28,05,13,7.10
2006,06,28,05,14,7.10
2006,06,28,05,15,7.10
2006,06,28,05,16,7.10
2006,06,28,05,17,7.00
2006,06,28,05,18,7.00
2006,06,28,05,19,7.00
2006,06,28,05,20,7.00
2006,06,28,05,21,6.90
2006,06,28,05,22,6.90
2006,06,28,05,23,6.90
2006,06,28,05,24,6.90
2006,06,28,05,25,6.90
2006,06,28,05,26,6.90
2006,06,28,05,27,6.80
2006,06,28,05,28,6.80
2006,06,28,05,29,6.80
2006,06,28,05,30,6.80
2006,06,28,05,31,6.80
2006,06,28,05,32,6.80
2006,06,28,05,33,6.70
2006,06,28,05,34,6.70
2006,06,28,05,35,6.70
2006,06,28,05,36,6.70
2006,06,28,05,37,6.70
2006,06,28,05,38,6.70
2006,06,28,05,39,6.70
2006,06,28,05,40,6.70
2006,06,28,05,41,6.70
2006,06,28,05,42,6.70
2006,06,28,05,43,6.70
2006,06,28,05,44,6.70
2006,06,28,05,45,6.70
2006,06,28,05,46,6.70
2006,06,28,05,47,6.70
2006,06,28,05,48,6.70
2006,06,28,05,49,6.70
2006,06,28,05,50,6.70
2006,06,28,05,51,6.70
2006,06,28,05,52,6.80
2006,06,28,05,53,6.80
2006,06,28,05,54,6.80
2006,06,28,05,55,6.80
2006,06,28,05,56,6.80
2006,06,28,05,57,6.80
2006,06,28,05,58,6.80
2006,06,28,05,59,6.80
2006,06,28,06,00,6.80
2006,06,28,06,01,6.80
2006,06,28,06,02,6.80
2006,06,28,06,03,6.80
2006,06,28,06,04,6.80
2006,06,28,06,05,6.80
2006,06,28,06,06,6.90
2006,06,28,06,07,6.90
2006,06,28,06,08,6.90
2006,06,28,06,09,6.90
2006,06,28,06,10,6.90
2006,06,28,06,11,7.00
2006,06,28,06,12,7.00
2006,06,28,06,13,7.00
2006,06,28,06,14,7.00
2006,06,28,06,15,7.10
2006,06,28,06,16,7.10
2006,06,28,06,17,7.10
2006,06,28,06,18,7.10
2006,06,28,06,19,7.10
2006,06,28,06,20,7.20
2006,06,28,06,21,7.20
2006,06,28,06,22,7.30
2006,06,28,06,23,7.30
2006,06,28,06,24,7.30
2006,06,28,06,25,7.30
2006,06,28,06,26,7.40
2006,06,28,06,27,7.40
2006,06,28,06,28,7.50
2006,06,28,06,29,7.50
2006,06,28,06,30,7.60
2006,06,28,06,31,7.60
2006,06,28,06,32,7.70
2006,06,28,06,33,7.70
2006,06,28,06,34,7.80
2006,06,28,06,35,7.80
2006,06,28,06,36,7.80
2006,06,28,06,37,7.90
2006,06,28,06,38,7.90
2006,06,28,06,39,8.00
2006,06,28,06,40,8.00
2006,06,28,06,41,8.10
2006,06,28,06,42,8.10
2006,06,28,06,43,8.20
2006,06,28,06,44,8.20
2006,06,28,06,45,8.30
2006,06,28,06,46,8.30
2006,06,28,06,47,8.40
2006,06,28,06,48,8.50
2006,06,28,06,49,8.50
2006,06,28,06,50,8.60
2006,06,28,06,51,8.70
2006,06,28,06,52,8.70
2006,06,28,06,53,8.70
2006,06,28,06,54,8.80
2006,06,28,06,55,8.80
2006,06,28,06,56,8.90
2006,06,28,06,57,9.00
2006,06,28,06,58,9.00
2006,06,28,06,59,9.20
2006,06,28,07,00,9.20
2006,06,28,07,01,9.30
2006,06,28,07,02,9.30
2006,06,28,07,03,9.40
2006,06,28,07,04,9.50
2006,06,28,07,05,9.50
2006,06,28,07,06,9.60
2006,06,28,07,07,9.70
2006,06,28,07,08,9.70
2006,06,28,07,09,9.70
2006,06,28,07,10,9.80
2006,06,28,07,11,9.80
2006,06,28,07,12,9.90
2006,06,28,07,13,9.90
2006,06,28,07,14,9.90
2006,06,28,07,15,9.90
2006,06,28,07,16,10.00
2006,06,28,07,17,10.10
2006,06,28,07,18,10.10
2006,06,28,07,19,10.10
2006,06,28,07,20,10.20
2006,06,28,07,21,10.30
2006,06,28,07,22,10.40
2006,06,28,07,23,10.40
2006,06,28,07,24,10.60
2006,06,28,07,25,10.60
2006,06,28,07,26,10.80
2006,06,28,07,27,10.90
2006,06,28,07,28,11.00
2006,06,28,07,29,11.10
2006,06,28,07,30,11.30
2006,06,28,07,31,11.40
2006,06,28,07,32,11.50
2006,06,28,07,33,11.60
2006,06,28,07,34,11.60
2006,06,28,07,35,11.60
2006,06,28,07,36,11.50
2006,06,28,07,37,11.40
2006,06,28,07,38,11.40
2006,06,28,07,39,11.40
2006,06,28,07,40,11.40
2006,06,28,07,41,11.50
2006,06,28,07,42,11.60
2006,06,28,07,43,11.40
2006,06,28,07,44,11.40
2006,06,28,07,45,11.40
2006,06,28,07,46,11.40
2006,06,28,07,47,11.50
2006,06,28,07,48,11.60
2006,06,28,07,49,11.60
2006,06,28,07,50,11.60
2006,06,28,07,51,11.70
2006,06,28,07,52,11.80
2006,06,28,07,53,11.80
2006,06,28,07,54,11.80
2006,06,28,07,55,11.80
2006,06,28,07,56,11.80
2006,06,28,07,57,11.80
2006,06,28,07,58,11.90
2006,06,28,07,59,11.90
2006,06,28,08,00,12.00
2006,06,28,08,01,12.00
2006,06,28,08,02,12.10
2006,06,28,08,03,12.10
2006,06,28,08,04,12.20
2006,06,28,08,05,12.30
2006,06,28,08,06,12.30
2006,06,28,08,07,12.20
2006,06,28,08,08,12.20
2006,06,28,08,09,12.30
2006,06,28,08,10,12.30
2006,06,28,08,11,12.40
2006,06,28,08,12,12.50
2006,06,28,08,13,12.50
2006,06,28,08,14,12.50
2006,06,28,08,15,12.50
2006,06,28,08,16,12.50
2006,06,28,08,17,12.40
2006,06,28,08,18,12.40
2006,06,28,08,19,12.40
2006,06,28,08,20,12.30
2006,06,28,08,21,12.20
2006,06,28,08,22,12.10
2006,06,28,08,23,12.10
2006,06,28,08,24,12.10
2006,06,28,08,25,12.10
2006,06,28,08,26,12.10
2006,06,28,08,27,12.10
2006,06,28,08,28,12.10
2006,06,28,08,29,12.30
2006,06,28,08,30,12.50
2006,06,28,08,31,12.50
2006,06,28,08,32,12.50
2006,06,28,08,33,12.50
2006,06,28,08,34,12.50
2006,06,28,08,35,12.40
2006,06,28,08,36,12.40
2006,06,28,08,37,12.60
2006,06,28,08,38,12.70
2006,06,28,08,39,12.60
2006,06,28,08,40,12.50
2006,06,28,08,41,12.40
2006,06,28,08,42,12.40
2006,06,28,08,43,12.30
2006,06,28,08,44,12.30
2006,06,28,08,45,12.30
2006,06,28,08,46,12.30
2006,06,28,08,47,12.20
2006,06,28,08,48,12.20
2006,06,28,08,49,12.20
2006,06,28,08,50,12.30
2006,06,28,08,51,12.40
2006,06,28,08,52,12.60
2006,06,28,08,53,12.80
2006,06,28,08,54,13.10
2006,06,28,08,55,13.20
2006,06,28,08,56,13.10
2006,06,28,08,57,12.90
2006,06,28,08,58,12.80
2006,06,28,08,59,12.80
2006,06,28,09,00,12.80
2006,06,28,09,01,12.70
2006,06,28,09,02,12.70
2006,06,28,09,03,12.70
2006,06,28,09,04,12.90
2006,06,28,09,05,13.10
2006,06,28,09,06,13.30
2006,06,28,09,07,13.30
2006,06,28,09,08,13.00
2006,06,28,09,09,12.80
2006,06,28,09,10,12.60
2006,06,28,09,11,12.60
2006,06,28,09,12,12.90
2006,06,28,09,13,13.00
2006,06,28,09,14,13.00
2006,06,28,09,15,12.90
2006,06,28,09,16,12.80
2006,06,28,09,17,12.80
2006,06,28,09,18,12.70
2006,06,28,09,19,12.70
2006,06,28,09,20,12.70
2006,06,28,09,21,12.60
2006,06,28,09,22,12.50
2006,06,28,09,23,12.40
2006,06,28,09,24,12.50
2006,06,28,09,25,12.60
2006,06,28,09,26,12.70
2006,06,28,09,27,12.80
2006,06,28,09,28,13.00
2006,06,28,09,29,13.20
2006,06,28,09,30,13.20
2006,06,28,09,31,13.00
2006,06,28,09,32,12.90
2006,06,28,09,33,12.80
2006,06,28,09,34,12.90
2006,06,28,09,35,12.90
2006,06,28,09,36,13.00
2006,06,28,09,37,13.00
2006,06,28,09,38,13.10
2006,06,28,09,39,13.00
2006,06,28,09,40,12.80
2006,06,28,09,41,12.70
2006,06,28,09,42,12.70
2006,06,28,09,43,12.90
2006,06,28,09,44,13.10
2006,06,28,09,45,13.20
2006,06,28,09,46,13.30
2006,06,28,09,47,13.30
2006,06,28,09,48,13.30
2006,06,28,09,49,13.40
2006,06,28,09,50,13.50
2006,06,28,09,51,13.60
2006,06,28,09,52,13.70
2006,06,28,09,53,13.70
2006,06,28,09,54,13.80
2006,06,28,09,55,14.00
2006,06,28,09,56,14.00
2006,06,28,09,57,14.00
2006,06,28,09,58,14.10
2006,06,28,09,59,14.20
2006,06,28,10,00,14.30
2006,06,28,10,01,14.20
2006,06,28,10,02,14.30
2006,06,28,10,03,14.50
2006,06,28,10,04,14.70
2006,06,28,10,05,14.80
2006,06,28,10,06,14.80
2006,06,28,10,07,14.70
2006,06,28,10,08,14.80
2006,06,28,10,09,14.70
2006,06,28,10,10,14.50
2006,06,28,10,11,14.40
2006,06,28,10,12,14.50
2006,06,28,10,13,14.70
2006,06,28,10,14,14.60
2006,06,28,10,15,14.50
2006,06,28,10,16,14.40
2006,06,28,10,17,14.20
2006,06,28,10,18,14.10
2006,06,28,10,19,14.20
2006,06,28,10,20,14.30
2006,06,28,10,21,14.40
2006,06,28,10,22,14.50
2006,06,28,10,23,14.70
2006,06,28,10,24,14.80
2006,06,28,10,25,14.90
2006,06,28,10,26,14.90
2006,06,28,10,27,15.00
2006,06,28,10,28,14.90
2006,06,28,10,29,15.00
2006,06,28,10,30,14.90
2006,06,28,10,31,15.10
2006,06,28,10,32,15.10
2006,06,28,10,33,15.10
2006,06,28,10,34,15.00
2006,06,28,10,35,15.00
2006,06,28,10,36,14.90
2006,06,28,10,37,14.90
2006,06,28,10,38,14.90
2006,06,28,10,39,14.90
2006,06,28,10,40,14.80
2006,06,28,10,41,15.00
2006,06,28,10,42,15.20
2006,06,28,10,43,15.30
2006,06,28,10,44,15.30
2006,06,28,10,45,15.30
2006,06,28,10,46,15.10
2006,06,28,10,47,15.10
2006,06,28,10,48,15.20
2006,06,28,10,49,15.50
2006,06,28,10,50,15.60
2006,06,28,10,51,15.60
2006,06,28,10,52,15.60
2006,06,28,10,53,15.70
2006,06,28,10,54,15.70
2006,06,28,10,55,15.80
2006,06,28,10,56,15.60
2006,06,28,10,57,15.50
2006,06,28,10,58,15.70
2006,06,28,10,59,15.70
2006,06,28,11,00,15.60
2006,06,28,11,01,15.50
2006,06,28,11,02,15.50
2006,06,28,11,03,15.50
2006,06,28,11,04,15.60
2006,06,28,11,05,15.60
2006,06,28,11,06,15.80
2006,06,28,11,07,15.80
2006,06,28,11,08,15.80
2006,06,28,11,09,15.80
2006,06,28,11,10,15.80
2006,06,28,11,11,15.60
2006,06,28,11,12,15.60
2006,06,28,11,13,15.50
2006,06,28,11,14,15.60
2006,06,28,11,15,15.80
2006,06,28,11,16,15.90
2006,06,28,11,17,16.00
2006,06,28,11,18,16.10
2006,06,28,11,19,16.10
2006,06,28,11,20,16.10
2006,06,28,11,21,16.10
2006,06,28,11,22,16.10
2006,06,28,11,23,15.90
2006,06,28,11,24,15.90
2006,06,28,11,25,15.90
2006,06,28,11,26,16.00
2006,06,28,11,27,16.10
2006,06,28,11,28,16.20
2006,06,28,11,29,16.20
2006,06,28,11,30,16.30
2006,06,28,11,31,16.20
2006,06,28,11,32,16.20
2006,06,28,11,33,16.10
2006,06,28,11,34,16.10
2006,06,28,11,35,16.10
2006,06,28,11,36,16.10
2006,06,28,11,37,16.30
2006,06,28,11,38,16.30
2006,06,28,11,39,16.30
2006,06,28,11,40,16.60
2006,06,28,11,41,16.80
2006,06,28,11,42,17.10
2006,06,28,11,43,17.30
2006,06,28,11,44,17.40
2006,06,28,11,45,17.30
2006,06,28,11,46,17.30
2006,06,28,11,47,17.40
2006,06,28,11,48,17.20
2006,06,28,11,49,17.00
2006,06,28,11,50,17.00
2006,06,28,11,51,17.10
2006,06,28,11,52,17.10
2006,06,28,11,53,17.00
2006,06,28,11,54,16.90
2006,06,28,11,55,16.90
2006,06,28,11,56,16.90
2006,06,28,11,57,16.80
2006,06,28,11,58,16.70
2006,06,28,11,59,16.80
2006,06,28,12,00,17.00
2006,06,28,12,01,17.20
2006,06,28,12,02,17.30
2006,06,28,12,03,17.40
2006,06,28,12,04,17.20
2006,06,28,12,05,17.00
2006,06,28,12,06,17.10
2006,06,28,12,07,17.10
2006,06,28,12,08,17.20
2006,06,28,12,09,17.20
2006,06,28,12,10,17.20
2006,06,28,12,11,17.20
2006,06,28,12,12,17.20
2006,06,28,12,13,17.10
2006,06,28,12,14,17.10
2006,06,28,12,15,17.20
2006,06,28,12,16,17.20
2006,06,28,12,17,17.10
2006,06,28,12,18,17.10
2006,06,28,12,19,17.30
2006,06,28,12,20,17.30
2006,06,28,12,21,17.40
2006,06,28,12,22,17.50
2006,06,28,12,23,17.50
2006,06,28,12,24,17.50
2006,06,28,12,25,17.60
2006,06,28,12,26,17.60
2006,06,28,12,27,17.40
2006,06,28,12,28,17.10
2006,06,28,12,29,16.80
2006,06,28,12,30,16.80
2006,06,28,12,31,16.80
2006,06,28,12,32,16.90
2006,06,28,12,33,16.80
2006,06,28,12,34,16.70
2006,06,28,12,35,16.70
2006,06,28,12,36,16.70
2006,06,28,12,37,16.90
2006,06,28,12,38,17.10
2006,06,28,12,39,17.00
2006,06,28,12,40,17.00
2006,06,28,12,41,17.30
2006,06,28,12,42,17.30
2006,06,28,12,43,17.30
2006,06,28,12,44,17.30
2006,06,28,12,45,17.40
2006,06,28,12,46,17.40
2006,06,28,12,47,17.30
2006,06,28,12,48,17.30
2006,06,28,12,49,17.30
2006,06,28,12,50,17.30
2006,06,28,12,51,17.20
2006,06,28,12,52,17.10
2006,06,28,12,53,17.10
2006,06,28,12,54,17.30
2006,06,28,12,55,17.30
2006,06,28,12,56,17.40
2006,06,28,12,57,17.50
2006,06,28,12,58,17.50
2006,06,28,12,59,17.80
2006,06,28,13,00,17.90
2006,06,28,13,01,17.90
2006,06,28,13,02,17.60
2006,06,28,13,03,17.50
2006,06,28,13,04,17.40
2006,06,28,13,05,17.30
2006,06,28,13,06,17.30
2006,06,28,13,07,17.30
2006,06,28,13,08,17.30
2006,06,28,13,09,17.20
2006,06,28,13,10,17.30
2006,06,28,13,11,17.40
2006,06,28,13,12,17.40
2006,06,28,13,13,17.40
2006,06,28,13,14,17.20
2006,06,28,13,15,17.20
2006,06,28,13,16,17.20
2006,06,28,13,17,17.30
2006,06,28,13,18,17.50
2006,06,28,13,19,17.50
2006,06,28,13,20,17.50
2006,06,28,13,21,17.30
2006,06,28,13,22,17.30
2006,06,28,13,23,17.30
2006,06,28,13,24,17.20
2006,06,28,13,25,17.30
2006,06,28,13,26,17.30
2006,06,28,13,27,17.30
2006,06,28,13,28,17.30
2006,06,28,13,29,17.30
2006,06,28,13,30,17.30
2006,06,28,13,31,17.40
2006,06,28,13,32,17.60
2006,06,28,13,33,17.70
2006,06,28,13,34,17.70
2006,06,28,13,35,18.00
2006,06,28,13,36,18.20
2006,06,28,13,37,18.20
2006,06,28,13,38,18.20
2006,06,28,13,39,18.20
2006,06,28,13,40,18.20
2006,06,28,13,41,18.10
2006,06,28,13,42,17.90
2006,06,28,13,43,17.80
2006,06,28,13,44,17.90
2006,06,28,13,45,17.90
2006,06,28,13,46,18.00
2006,06,28,13,47,18.10
2006,06,28,13,48,18.10
2006,06,28,13,49,17.90
2006,06,28,13,50,17.80
2006,06,28,13,51,17.70
2006,06,28,13,52,17.50
2006,06,28,13,53,17.70
2006,06,28,13,54,17.70
2006,06,28,13,55,17.70
2006,06,28,13,56,17.70
2006,06,28,13,57,17.80
2006,06,28,13,58,17.80
2006,06,28,13,59,17.80
2006,06,28,14,00,17.70
2006,06,28,14,01,17.70
2006,06,28,14,02,17.90
2006,06,28,14,03,18.20
2006,06,28,14,04,18.30
2006,06,28,14,05,18.10
2006,06,28,14,06,18.20
2006,06,28,14,07,18.20
2006,06,28,14,08,18.10
2006,06,28,14,09,18.00
2006,06,28,14,10,18.00
2006,06,28,14,11,18.10
2006,06,28,14,12,17.80
2006,06,28,14,13,17.70
2006,06,28,14,14,17.70
2006,06,28,14,15,17.80
2006,06,28,14,16,17.70
2006,06,28,14,17,17.60
2006,06,28,14,18,17.50
2006,06,28,14,19,17.70
2006,06,28,14,20,18.00
2006,06,28,14,21,18.20
2006,06,28,14,22,18.00
2006,06,28,14,23,18.00
2006,06,28,14,24,18.10
2006,06,28,14,25,18.20
2006,06,28,14,26,18.30
2006,06,28,14,27,18.10
2006,06,28,14,28,17.80
2006,06,28,14,29,17.50
2006,06,28,14,30,17.30
2006,06,28,14,31,17.30
2006,06,28,14,32,17.20
2006,06,28,14,33,17.10
2006,06,28,14,34,17.00
2006,06,28,14,35,17.00
2006,06,28,14,36,17.00
2006,06,28,14,37,17.10
2006,06,28,14,38,17.10
2006,06,28,14,39,17.20
2006,06,28,14,40,17.20
2006,06,28,14,41,17.40
2006,06,28,14,42,17.40
2006,06,28,14,43,17.50
2006,06,28,14,44,17.50
2006,06,28,14,45,17.50
2006,06,28,14,46,17.40
2006,06,28,14,47,17.60
2006,06,28,14,48,17.60
2006,06,28,14,49,17.50
2006,06,28,14,50,17.40
2006,06,28,14,51,17.40
2006,06,28,14,52,17.30
2006,06,28,14,53,17.30
2006,06,28,14,54,17.40
2006,06,28,14,55,17.50
2006,06,28,14,56,17.50
2006,06,28,14,57,17.40
2006,06,28,14,58,17.40
2006,06,28,14,59,17.40
2006,06,28,15,00,17.40
2006,06,28,15,01,17.60
2006,06,28,15,02,17.90
2006,06,28,15,03,18.10
2006,06,28,15,04,18.10
2006,06,28,15,05,18.10
2006,06,28,15,06,18.10
2006,06,28,15,07,17.90
2006,06,28,15,08,17.90
2006,06,28,15,09,18.00
2006,06,28,15,10,18.20
2006,06,28,15,11,18.10
2006,06,28,15,12,18.00
2006,06,28,15,13,18.00
2006,06,28,15,14,17.80
2006,06,28,15,15,17.80
2006,06,28,15,16,17.90
2006,06,28,15,17,17.90
2006,06,28,15,18,18.10
2006,06,28,15,19,18.20
2006,06,28,15,20,18.20
2006,06,28,15,21,18.00
2006,06,28,15,22,17.90
2006,06,28,15,23,17.90
2006,06,28,15,24,18.00
2006,06,28,15,25,18.20
2006,06,28,15,26,18.10
2006,06,28,15,27,18.10
2006,06,28,15,28,18.10
2006,06,28,15,29,18.10
2006,06,28,15,30,18.10
2006,06,28,15,31,18.10
2006,06,28,15,32,18.20
2006,06,28,15,33,18.40
2006,06,28,15,34,18.50
2006,06,28,15,35,18.50
2006,06,28,15,36,18.70
2006,06,28,15,37,18.80
2006,06,28,15,38,18.80
2006,06,28,15,39,18.80
2006,06,28,15,40,18.80
2006,06,28,15,41,18.70
2006,06,28,15,42,18.60
2006,06,28,15,43,18.60
2006,06,28,15,44,18.60
2006,06,28,15,45,18.40
2006,06,28,15,46,18.20
2006,06,28,15,47,17.90
2006,06,28,15,48,17.90
2006,06,28,15,49,17.80
2006,06,28,15,50,17.80
2006,06,28,15,51,17.80
2006,06,28,15,52,17.90
2006,06,28,15,53,17.90
2006,06,28,15,54,17.80
2006,06,28,15,55,17.80
2006,06,28,15,56,17.80
2006,06,28,15,57,17.70
2006,06,28,15,58,17.60
2006,06,28,15,59,17.60
2006,06,28,16,00,17.70
2006,06,28,16,01,17.60
2006,06,28,16,02,17.40
2006,06,28,16,03,17.50
2006,06,28,16,04,17.50
2006,06,28,16,05,17.50
2006,06,28,16,06,17.60
2006,06,28,16,07,17.70
2006,06,28,16,08,17.60
2006,06,28,16,09,17.50
2006,06,28,16,10,17.50
2006,06,28,16,11,17.70
2006,06,28,16,12,17.90
2006,06,28,16,13,18.00
2006,06,28,16,14,18.10
2006,06,28,16,15,18.20
2006,06,28,16,16,18.20
2006,06,28,16,17,18.30
2006,06,28,16,18,18.10
2006,06,28,16,19,18.00
2006,06,28,16,20,17.90
2006,06,28,16,21,17.70
2006,06,28,16,22,17.60
2006,06,28,16,23,17.60
2006,06,28,16,24,17.60
2006,06,28,16,25,17.70
2006,06,28,16,26,17.80
2006,06,28,16,27,17.70
2006,06,28,16,28,17.60
2006,06,28,16,29,17.40
2006,06,28,16,30,17.30
2006,06,28,16,31,17.30
2006,06,28,16,32,17.30
2006,06,28,16,33,17.30
2006,06,28,16,34,17.40
2006,06,28,16,35,17.40
2006,06,28,16,36,17.30
2006,06,28,16,37,17.30
2006,06,28,16,38,17.30
2006,06,28,16,39,17.20
2006,06,28,16,40,17.00
2006,06,28,16,41,16.80
2006,06,28,16,42,16.70
2006,06,28,16,43,16.80
2006,06,28,16,44,16.80
2006,06,28,16,45,16.70
2006,06,28,16,46,16.70
2006,06,28,16,47,16.70
2006,06,28,16,48,16.70
2006,06,28,16,49,16.70
2006,06,28,16,50,16.70
2006,06,28,16,51,16.70
2006,06,28,16,52,16.90
2006,06,28,16,53,17.00
2006,06,28,16,54,17.30
2006,06,28,16,55,17.30
2006,06,28,16,56,17.30
2006,06,28,16,57,17.20
2006,06,28,16,58,17.10
2006,06,28,16,59,17.00
2006,06,28,17,00,16.90
2006,06,28,17,01,16.70
2006,06,28,17,02,16.50
2006,06,28,17,03,16.40
2006,06,28,17,04,16.30
2006,06,28,17,05,16.30
2006,06,28,17,06,16.30
2006,06,28,17,07,16.40
2006,06,28,17,08,16.60
2006,06,28,17,09,16.50
2006,06,28,17,10,16.40
2006,06,28,17,11,16.40
2006,06,28,17,12,16.30
2006,06,28,17,13,16.30
2006,06,28,17,14,16.50
2006,06,28,17,15,16.70
2006,06,28,17,16,16.70
2006,06,28,17,17,16.70
2006,06,28,17,18,16.60
2006,06,28,17,19,16.60
2006,06,28,17,20,16.60
2006,06,28,17,21,16.60
2006,06,28,17,22,16.70
2006,06,28,17,23,16.80
2006,06,28,17,24,16.80
2006,06,28,17,25,16.80
2006,06,28,17,26,16.70
2006,06,28,17,27,16.70
2006,06,28,17,28,16.50
2006,06,28,17,29,16.20
2006,06,28,17,30,16.10
2006,06,28,17,31,16.00